This is the latest recevied weather packets stored in our database for station/object CT4TX-6. If no packets are shown the sender has not sent any weather packets the latest 10 day(s).
| Time | Temp. | Humidity | Pressure | Rain* | Wind** | Luminosity | Snow |
|---|---|---|---|---|---|---|---|
| 1787433879 | 26.11° C | 46% | 1002.1 hPa | - | - | - | - |
| 1787433811 | 26.11° C | 46% | 1002.1 hPa | - | - | - | - |
| 1787433763 | 26.11° C | 46% | 1002.1 hPa | - | - | - | - |
| 1787433108 | 26.67° C | 45% | 1002 hPa | - | - | - | - |
| 1787432207 | 26.67° C | 45% | 1002 hPa | - | - | - | - |
| 1787431307 | 26.11° C | 46% | 1001.9 hPa | - | - | - | - |
| 1787430407 | 26.11° C | 45% | 1001.6 hPa | - | - | - | - |
| 1787429507 | 26.67° C | 42% | 1001.5 hPa | - | - | - | - |
| 1787428607 | 26.67° C | 40% | 1001.2 hPa | - | - | - | - |
| 1787427707 | 27.22° C | 40% | 1001.2 hPa | - | - | - | - |
| 1787426806 | 27.22° C | 40% | 1001.1 hPa | - | - | - | - |
| 1787425906 | 27.22° C | 39% | 1001 hPa | - | - | - | - |
| 1787425006 | 27.22° C | 40% | 1000.9 hPa | - | - | - | - |
| 1787424106 | 27.78° C | 41% | 1000.8 hPa | - | - | - | - |
| 1787423210 | 27.78° C | 42% | 1000.7 hPa | - | - | - | - |
| 1787422310 | 27.78° C | 41% | 1000.6 hPa | - | - | - | - |
| 1787421410 | 27.78° C | 41% | 1000.7 hPa | - | - | - | - |
| 1787420509 | 27.78° C | 41% | 1000.8 hPa | - | - | - | - |
| 1787419608 | 27.78° C | 42% | 1000.8 hPa | - | - | - | - |
| 1787418708 | 27.78° C | 43% | 1000.8 hPa | - | - | - | - |
| 1787417808 | 27.78° C | 42% | 1000.8 hPa | - | - | - | - |
| 1787416908 | 27.78° C | 43% | 1000.9 hPa | - | - | - | - |
| 1787416008 | 27.78° C | 43% | 1000.8 hPa | - | - | - | - |
| 1787415108 | 27.78° C | 42% | 1000.9 hPa | - | - | - | - |
| 1787414207 | 28.33° C | 44% | 1000.8 hPa | - | - | - | - |
* Rain since midnight (hover to see other rain measurements)
** Current wind speed in m/s (hover to see current wind gust speed)